Weather in Samchiki

Ukraine / Khmelnitsky District     49°45′47″N   27°23′50″E
temp.,
°C
wind,
m/s
gust,
m/s
humid.,
%
clouds,
%
prec.,
mm/h
press.,
hPa
HPBL,
m
11 april, sun
sun1100:00+5s48600 0.0 1025131
03:00+4s48670 0.0 1026138
06:00+3s36670 0.0 102687
09:00+7sse47560 0.0 1027279
12:00+12sse67400 0.0 10261131
15:00+14sse56350 0.0 10251443
18:00+13sse56400 0.0 10251355
21:00+8se49590 0.0 1026162
12 april, mon
mon1200:00+6sse47602 0.0 1027116
03:00+5se37647 0.0 102797
06:00+4se35680 0.0 102570
09:00+8se35560 0.0 1025242
12:00+13se34400 0.0 1023984
15:00+15se33350 0.0 10211337
18:00+15se33382 0.0 10201290
21:00+10se22552 0.0 102116
13 april, tue
tue1300:00+8se33630 0.0 102128
03:00+7s22691 0.0 102010
06:00+6ne00690 0.0 102010
09:00+11ene22585 0.0 1020192
12:00+15ene224482 0.0 1018932
15:00+16ene324885 0.0 10171262
18:00+14e235897 0.0 1016487
21:00+11se3585100 0.0 1016224
14 april, wed
wed1400:00+10sse3596100 1.2 1015221
03:00+10sse3597100 3.8 1014246
06:00+10sse4795100 1.8 1013372
09:00+9sse5890100 2.1 1014466
12:00+13sse5667100 0.1 10131194
15:00+12se6671100 0.5 10131105
18:00+9se5787100 0.2 1013563
21:00+8sse3790100 0.5 1014439
15 april, thu
thu1500:00+8s3692100 0.1 1014319
03:00+7se2391100 0.2 1014148
06:00+7ese2391100 0.0 1014151
09:00+7ese2392100 0.8 1014257
12:00+8ne1190100 1.1 1015231
15:00+9nnw228597 1.3 1014268
18:00+10nw237799 0.0 1013263
21:00+9nnw4890100 0.1 1014266